Terminal Aerodrome Forecast
Issued by NWS Cleveland, OH

Home | Current Version | Previous Version | Graphics & Text | Print | Product List | Glossary On
Versions: 1 2 3 4 5 6 7 8 9 10 11 12 13 14 15 16 17 18 19 20 21 22 23 24 25 26 27 28 29 30 31 32 33 34 35 36 37 38
000
FTUS41 KCLE 050500 RRA
TAFCLE
TAF
KCLE 050543Z 0506/0612 VRB03KT P6SM SCT045 BKN250
     FM050700 VRB03KT 5SM BR SCT035 BKN250
     FM050900 07005KT P6SM SCT035 BKN250
     FM051500 02008KT P6SM BKN045 OVC100
     FM052000 03008KT P6SM VCSH BKN035 OVC080
     FM060300 06004KT P6SM OVC045=

USA.gov is the U.S. government's official web portal to all federal, state and local government web resources and services.